Weather History for Maxwell AFB, AL

Change the Weather History Date:

Tuesday, February 5, 2013

  Actual Average Record
Temperature  
Mean Temperature 56 °F -  
Max Temperature 70 °F 58 °F 78 °F (2008)
Min Temperature 41 °F 38 °F 18 °F (2009)
Degree Days  
Heating Degree Days 10    
Growing Degree Days 6 (Base 50)    
Moisture  
Dew Point 48 °F    
Average Humidity 78    
Maximum Humidity 95    
Minimum Humidity 48    
Precipitation  
Precipitation 0.00 in - - ()
Sea Level Pressure  
Sea Level Pressure 30.02 in    
Wind  
Wind Speed 2 mph (WNW)    
Max Wind Speed 7 mph    
Max Gust Speed -    
Visibility 10 miles    
Events Rain    
Averages and records for this station are not official NWS values.
T = Trace of Precipitation, MM = Missing Value Source: NWS Daily Summary

Daily Weather History Graph

Daily Weather History Graph

Search for Another Location

Airport:

Trip Planner

Search our weather history database for the weather conditions in past years. The results will help you decide how hot, cold, wet, or windy it might be!

Date:

Astronomy

Feb. 05, 2013 Rise Set
Actual Time 6:36 AM CST 5:22 PM CST
Civil Twilight 6:11 AM CST 5:48 PM CST
Nautical Twilight 5:41 AM CST 6:17 PM CST
Astronomical Twilight 5:13 AM CST 6:46 PM CST
Moon 2:11 AM CST (2/5) 12:46 PM CST (2/5)
Length of Visible Light 11h 37m
Length of Day
10h 46m
Waning Crescent, 26% of the Moon is Illuminated
Feb 5
Waning Crescent
Feb 10
New
Feb 17
First Quarter
Feb 25
Full
Mar 4
Last Quarter

Hourly Weather History & Observations

Time (CST) Temp. Windchill Dew Point Humidity Pressure Visibility Wind Dir Wind Speed Gust Speed Precip Events Conditions
12:48 AM 44.6 °F - 41.0 °F 87% 29.99 in 10.0 mi Calm Calm - N/A Rain Light Rain
12:58 AM 44.4 °F - 41.5 °F 90% 30.00 in 10.0 mi Calm Calm - 0.00 in Rain Light Rain
12:59 AM 44.6 °F - 41.0 °F 87% 29.99 in 10.0 mi Calm Calm - N/A   Mostly Cloudy
1:58 AM 44.6 °F - 40.6 °F 86% 30.00 in 10.0 mi North 2.3 mph - 0.00 in   Mostly Cloudy
2:58 AM 43.7 °F - 39.9 °F 87% 30.00 in 10.0 mi North 1.2 mph - N/A   Scattered Clouds
3:58 AM 43.7 °F - 39.9 °F 87% 30.00 in 10.0 mi Calm Calm - N/A   Overcast
4:58 AM 43.0 °F 41.3 °F 39.4 °F 87% 30.00 in 10.0 mi North 3.5 mph - N/A   Partly Cloudy
5:58 AM 42.3 °F - 39.4 °F 90% 30.02 in 10.0 mi North 2.3 mph - N/A   Clear
6:58 AM 41.7 °F - 39.6 °F 92% 30.04 in 10.0 mi North - - N/A   Clear
7:58 AM 47.3 °F - 42.4 °F 83% 30.06 in 10.0 mi North 2.3 mph - N/A   Mostly Cloudy
8:58 AM 54.3 °F - 45.7 °F 73% 30.05 in 10.0 mi SSE 5.8 mph - N/A   Clear
9:58 AM 58.8 °F - 48.0 °F 67% 30.07 in 10.0 mi Variable 3.5 mph - N/A   Clear
10:58 AM 65.8 °F - 49.8 °F 56% 30.06 in 10.0 mi Variable 3.5 mph - N/A   Partly Cloudy
11:58 AM 68.7 °F - 50.0 °F 51% 30.03 in 10.0 mi Variable 2.3 mph - N/A   Overcast
12:58 PM 70.0 °F - 50.4 °F 50% 30.00 in 10.0 mi NE 4.6 mph - N/A   Overcast
1:58 PM 70.9 °F - 50.0 °F 48% 29.98 in 10.0 mi Variable 2.3 mph - N/A   Mostly Cloudy
2:58 PM 70.0 °F - 53.8 °F 56% 29.98 in 10.0 mi SSW 3.5 mph - N/A   Overcast
3:58 PM 69.6 °F - 53.4 °F 56% 29.98 in 10.0 mi West 3.5 mph - N/A   Overcast
4:58 PM 66.0 °F - 54.9 °F 67% 29.97 in 10.0 mi South 6.9 mph - N/A   Clear
5:58 PM 63.9 °F - 55.9 °F 75% 29.99 in 10.0 mi SSW 4.6 mph - N/A   Mostly Cloudy
6:58 PM 61.9 °F - 56.3 °F 82% 30.01 in 10.0 mi WSW 3.5 mph - N/A   Mostly Cloudy
7:58 PM 57.9 °F - 55.2 °F 91% 30.03 in 10.0 mi WSW 2.3 mph - N/A   Clear
8:58 PM 56.5 °F - 54.9 °F 94% 30.06 in 10.0 mi NNW 4.6 mph - N/A   Overcast
9:03 PM 57.2 °F - 55.4 °F 94% 30.05 in 10.0 mi North 5.8 mph - N/A   Overcast
9:58 PM 58.8 °F - 52.7 °F 80% 30.06 in 10.0 mi Calm Calm - N/A   Overcast
10:38 PM 57.2 °F - 51.8 °F 82% 30.05 in 10.0 mi Calm Calm - N/A   Scattered Clouds
10:58 PM 55.8 °F - 52.2 °F 88% 30.06 in 10.0 mi Calm Calm - N/A   Clear
11:58 PM 51.4 °F - 50.0 °F 95% 30.06 in 10.0 mi West 2.3 mph - N/A   Clear